www.pogodaiklimat.ru
ПОГОДА в Петербурге
Время
и дата
05:41 07.12
06:26 07.12
08:01 07.12
10:03 07.12
11:03 07.12
11:21 07.12
12:02 07.12
13:02 07.12
13:23 07.12
13:44 07.12
14:23 07.12
15:26 07.12
16:02 07.12
17:23 07.12
17:46 07.12
20:02 07.12
20:42 07.12
21:06 07.12
21:44 07.12
22:22 07.12
23:08 07.12
23:46 07.12
00:42 08.12
01:04 08.12
01:42 08.12
02:23 08.12
03:04 08.12
03:22 08.12
03:42 08.12
04:02 08.12
04:42 08.12
05:06 08.12
05:43 08.12
06:42 08.12
07:22 08.12
07:42 08.12
08:04 08.12
08:24 08.12
08:42 08.12
09:07 08.12
09:28 08.12
10:02 08.12
10:27 08.12
11:04 08.12
11:46 08.12
12:06 08.12
13:04 08.12
13:22 08.12
Ветер
(напр.,м/с)
Видим. Явления Облачность Т
(С)
Тd
(С)
f
(%)
Тe
(С)
Тes
(С)
Комфортность P
(гПа)
Po
(гПа)
Тmin
(С)
Tmax
(С)
R
(мм)
R24
(мм)
S
(см)
штиль 0 2 км слабый снег 10/5 1290 m
[Ac Ns]
+4.0 +4.0 100 +3 +3 986.5
штиль 0 5 км дождь 10/5 810 m
[Ac Ns]
+4.0 +4.0 100 +3 +3 986.5
штиль 0 3 км слабый дождь 10/10 270 m
[Ns]
+6.0 +6.0 100 +5 +5 986.9
штиль 0 6 км дымка 10/10 1110 м +7.0 +7.0 100 +6 +6 987.2
штиль 0 8 км дымка 10/8 1140 m
[Ac]
+8.0 +8.0 100 +7 +7 987.2
штиль 0 8 км дымка 10/10 1140 м +8.0 +8.0 100 +7 +7 986.9
штиль 0 11 км 8/8 1260 m
[Ac]
+9.0 +9.0 100 +8 +9 986.5
штиль 0 11 км 10/10 1230 м +10.0 +10.0 100 +9 +9 985.6
штиль 0 11 км 10/10 1290 м +11.0 +11.0 100 +10 +10 985.6
штиль 0 11 км 10/10 1290 м +11.0 +11.0 100 +10 +10 985.2
штиль 0 16 км 8/8 1290 m
[Ac]
+12.0 +12.0 100 +11 +12 985.2
штиль 0 16 км ясно +12.0 +12.0 100 +11 +14 985.2
штиль 0 16 км 8/5 1320 m
[Ac]
+12.0 +12.0 100 +11 +11 985.2
штиль 0 8 км дымка 5/5 1950 м +11.0 +11.0 100 +10 +10 985.6
штиль 0 8 км дымка ясно +11.0 +11.0 100 +10 +10 985.9
штиль 0 8 км дымка 10/10 1350 м +11.0 +11.0 100 +10 +10 987.2
В 2 8 км дымка 10/10 1350 м +11.0 +11.0 100 +10 +10 987.5
штиль 0 8 км дымка 10/10 1410 м +11.0 +11.0 100 +10 +10 987.5
штиль 0 8 км дымка 10/10 1320 м +11.0 +11.0 100 +10 +10 988.2
штиль 0 8 км дымка 10/10 1320 м +11.0 +11.0 100 +10 +10 988.2
СВ 2 8 км дымка 8/8 1260 м +11.0 +11.0 100 +10 +10 988.2
СЗ 6 16 км 5/5 1080 м +16.0 +11.0 72 +15 +15 988.2
штиль 0 16 км 5/5 1020 м +13.0 +11.0 88 +12 +12 988.5
С 2 16 км 8/8 1020 м +14.0 +11.0 82 +13 +13 988.5
СЗ 2 16 км 8/8 1080 м +14.0 +9.0 72 +14 +14 988.5
штиль 0 16 км 8/8 1080 м +11.0 +9.0 87 +10 +10 989.2
штиль 0 16 км 10/10 1080 м +11.0 +11.0 100 +10 +10 989.2
штиль 0 16 км 8/8 1140 м +11.0 +10.0 94 +10 +10 989.5
штиль 0 16 км 8/8 1140 м +10.0 +10.0 100 +9 +9 989.2
штиль 0 16 км 10/10 1200 м +9.0 +9.0 100 +8 +8 989.2
штиль 0 11 км 8/8 1200 м +9.0 +9.0 100 +8 +8 989.2
штиль 0 11 км 5/5 1200 м +9.0 +9.0 100 +8 +8 988.8
З 2 11 км 5/5 1200 м +9.0 +9.0 100 +7 +7 989.2
штиль 0 8 км дымка 5/5 1140 м +8.0 +8.0 100 +7 +7 990.5
штиль 0 5 км дымка 10/10 1140 м +7.0 +7.0 100 +6 +6 990.1
штиль 0 6 км дымка 10/10 1200 м +8.0 +8.0 100 +7 +7 990.1
штиль 0 8 км дымка 8/8 1200 м +8.0 +8.0 100 +7 +7 990.1
штиль 0 6 км дымка 5/5 1140 м +8.0 +8.0 100 +7 +7 990.5
штиль 0 8 км дымка 8/8 1140 м +9.0 +9.0 100 +8 +8 990.8
штиль 0 8 км дымка 5/5 1140 м +10.0 +10.0 100 +9 +10 990.8
штиль 0 16 км ясно +11.0 +9.0 87 +10 +12 990.5
ЮВ 2 16 км ясно +11.0 +8.0 82 +10 +12 991.1
В 2 16 км ясно +12.0 +7.0 71 +11 +14 991.5
ЮВ 3 16 км ясно +12.0 +7.0 71 +10 +14 991.1
штиль 0 16 км ясно +12.0 +7.0 71 +12 +17 990.5
штиль 0 16 км ясно +12.0 +6.0 67 +12 +18 990.5
Ю 2 16 км ясно +13.0 +7.0 67 +12 +17 989.5
ЮВ 2 16 км ясно +13.0 +7.0 67 +12 +17 989.2
Местоположение метеостанции Grant County Airport: широта 38.9833 долгота -79.1333 высота над уровнем моря 293 м.
В архиве по умолчанию представлена погода в Петербурге за последние 1-2 суток. Обновление информации о фактической погоде в базе происходит ежечасно! Архивные данные за месяц целиком и за предыдущие месяцы Вы можете получить, выбрав интересующий диапазон дат из раскрывающегося списка и нажав кнопку "Ввод!".
Внимание! Архив погоды МЕТАР в базе сайта по станциям, не включенным в климатический монитор, хранится не более 60 дней. Нет смысла пытаться выбрать более раннюю дату.
*Определитесь, кто Вы:
Внимание! Время в таблицах - местное (без учета летнего времени). Для получения всемирного времени необходимо вычесть поправку, которая равна -5 ч.
Смотрите также архив погоды в соседних городах и на ближайших метеорологических станциях:
Партнеры нашего сайта:      
Пояснения к столбцам:
  • Ветер - указаны скорость ветра в м/с - средняя за 10 мин, порывы в срок и между сроками (в фигурных скобках) и направление, откуда дует ветер: С - северный,
  • СВ - северо-восточный, В - восточный, ЮВ - юго-восточный, Ю - южный, ЮЗ - юго-западный, З - западный, СЗ - северо-западный.
  • Видимость - горизонтальная дальность видимости в метрах или километрах. При видимости от 1 до 10 км при отсутствии осадков обычно наблюдается дымка, при ухудшении видимости до 1 км и менее - туман. В сухую погоду видимость может ухудшаться дымом, пылью или мглою.
  • Явления - указаны атмосферные явления, наблюдавшиеся в срок или в последний час перед сроком; фигурными скобками обозначены явления, наблюдавшиеся между сроками (за 1-3 часа до срока); квадратными скобками обозначены град или гололедные отложения с указанием их диаметра в мм.
  • Облачность - указаны через наклонную черту общая и нижняя облачность в баллах и высота нижней границы облаков в метрах; квадратными скобками обозначены формы облаков: Ci - перистые, Cs - перисто-слоистые, Cc - перисто-кучевые, Ac - высококучевые, As - высокослоистые, Sc - слоисто-кучевые, Ns - слоисто-дождевые, Cu - кучевые, Cb - кучево-дождевые. Подробнее классификацию облаков см. в Атласе облаков (PDF).
  • T - Температура воздуха - температура, измеренная на высоте 2 м над землей.
  • Td - Температура точки росы - температура, при понижении до которой содержащийся в воздухе водяной пар достигнет насыщения.
  • f - Относительная влажность воздуха - влажноcть воздуха, измеренная на высоте 2 м над землей.
  • Te - Эффективная температура - температура, которую ощущает одетый по сезону человек в тени. Характеристика душности погоды. При расчете учитывается влияние влажности воздуха и скорости ветра на теплоощущения человека.
  • Tes - Эффективная температура на солнце - температура, которую ощущает человек, с поправкой на солнечный нагрев. Характеристика знойности погоды. Зависит от высоты солнца над горизонтом, облачности и скорости ветра. Ночью, в пасмурную погоду, а также при ветре 12 м/с и более поправка равна нулю.
  • P - Атмосферное давление - приведенное к уровню моря атмосферное давление.
  • Po - Атмосферное давление - измеренное на уровне метеостанции атмосферное давление.
  • Tmin - Минимальная температура - минимум температуры воздуха на высоте 2 м над землей.
  • Tmax - Максимальная температура - максимум температуры воздуха на высоте 2 м над землей.
  • R - Количество осадков - Количество выпавших осадков за период времени, мм. При наведении курсора мыши на число - период времени, за который выпало указанное количество осадков.
  • R24 - Количество осадков - Количество выпавших осадков за 24 часа, мм.
  • S - Снежный покров - Высота снежного покрова, см. При наведении курсора мыши на число - состояние снежного покрова и степень покрытия местности в баллах.